OKEAN-0
1 25860U 99039A 10363.82977545 .00000066 00000-0 17557-4 0 01905
2 25860 097.8606 330.1819 0001391 107.4375 252.6985 14.73696437615712
NOAA-16
1 26536U 00055A 10364.43007166 -.00000180 00000-0 -72259-4 0 1300
2 26536 099.1586 026.4064 0010998 143.7256 216.4664 14.12589780529537
NOAA-17
1 27453U 02032A 10364.57035068 .00000200 00000-0 10463-3 0 1234
2 27453 098.4052 046.8295 0010737 284.4896 075.5095 14.24223568442653
NOAA-18
1 28654U 05018A 10364.52755912 -.00000034 00000-0 63064-5 0 6099
2 28654 098.9757 310.4576 0013824 217.6454 142.3731 14.11422165289136
NOAA-19
1 33591U 09005A 10364.55856501 -.00000087 00000-0 -24463-4 0 8038
2 33591 098.8103 302.7004 0015013 093.1000 267.1891 14.11114608 97604
HUBBLE
1 20580U 90037B 10363.52608847 .00000490 00000-0 24543-4 0 6933
2 20580 028.4703 044.4992 0003444 119.8902 240.1995 15.01127167934139
ISS
1 25544U 98067A 10364.88164388 .00014768 00000-0 11343-3 0 5548
2 25544 051.6475 303.6861 0005372 088.8434 010.5621 15.72305098694418
CO-58
1 28895U 05043F 10363.65428817 .00000132 00000-0 36846-4 0 07645
2 28895 097.9890 241.3532 0018663 035.2728 324.9684 14.59986358275500
FALCON
1 30776U 07006E 10363.93356219 .00000796 00000-0 59390-4 0 00080
2 30776 035.4345 295.5704 0000795 024.4426 335.6328 15.04035956209542
MAST
1 31126U 07012K 10364.60664372 .00000101 00000-0 33396-4 0 475
2 31126 097.9149 036.2086 0094464 336.0774 023.6065 14.53658984196591
CAPE1
1 31130U 07012P 10364.57150695 .00000075 00000-0 27946-4 0 681
2 31130 097.9164 033.2121 0102511 345.5667 014.2590 14.52271777196161
COMPASS
1 32787U 08021E 10363.22953825 .00000577 00000-0 79119-4 0 08693
2 32787 097.8713 065.0681 0016162 014.5871 345.5763 14.82094107144381
AAUSAT2
1 32788U 08021F 10363.61794695 .00000647 00000-0 87547-4 0 08596
2 32788 097.8707 065.6233 0015806 014.1173 346.0508 14.82253065144450
DO-64
1 32789U 08021G 10363.80308557 .00000577 00000-0 78279-4 0 08758
2 32789 097.8796 066.5281 0015651 011.8518 348.3072 14.82515526144484
CO-66
1 32791U 08021J 10364.22733439 .00000547 00000-0 75812-4 0 8600
2 32791 097.8724 066.0330 0016537 009.7437 350.4088 14.81843709144485
RS-30
1 32953U 08025A 10364.28158538 .00000010 00000-0 00000 0 0 3445
2 32953 082.5025 267.7373 0019867 036.4521 323.7910 12.43010045118109
TACSAT-3
1 35001U 09028A 10363.78044915 .00005853 00000-0 12849-3 0 04868
2 35001 040.4545 117.2748 0022524 026.0439 334.1505 15.44203773090851
PHARMSAT
1 35002U 09028B 10363.68257296 .00005090 00000-0 11128-3 0 4352
2 35002 040.4685 115.3864 0024359 028.8256 331.3902 15.44474909 90862
HAWKSAT1
1 35003U 09028C 10364.53112072 .00015442 00000-0 26494-3 0 4747
2 35003 040.4570 097.1915 0022744 059.9209 300.3877 15.50488778 91144
CP6
1 35004U 09028D 10364.49046778 .00018346 00000-0 29190-3 0 4766
2 35004 040.4584 094.1665 0022436 065.0957 295.2273 15.52511343 91166
AEROCUB3
1 35005U 09028E 10364.57518968 .00842931 32738-3 16900-2 0 5947
2 35005 040.4559 065.0351 0020548 091.4613 268.8519 15.98453973 91491
METEOR-M
1 35865U 09049A 10364.82289187 .00000176 00000-0 10000-3 0 9693
2 35865 098.7321 056.9377 0002625 141.6013 218.5286 14.21833926 66662
RS-38
1 35869U 09049E 10364.63183949 .00000177 00000-0 10000-3 0 9821
2 35869 098.7304 056.7893 0004666 148.3558 211.7874 14.21997055 66643
